This is the latest recevied weather packets stored in our database for station/object K6CEG. If no packets are shown the sender has not sent any weather packets the latest 10 day(s).
| Time | Temp. | Humidity | Pressure | Rain* | Wind** | Luminosity | Snow |
|---|---|---|---|---|---|---|---|
| 1778370789 | 27.22° C | 45% | 1012.7 hPa | 0 mm | - | 77 W/m² | - |
| 1778370485 | 26.67° C | 46% | 1012.9 hPa | 0 mm | - | 45 W/m² | - |
| 1778370182 | 27.22° C | 46% | 1012.6 hPa | 0 mm | - | 339 W/m² | - |
| 1778369880 | 27.78° C | 46% | 1012.9 hPa | 0 mm | - | 49 W/m² | - |
| 1778369578 | 27.78° C | 46% | 1012.8 hPa | 0 mm | - | 50 W/m² | - |
| 1778369273 | 27.78° C | 45% | 1012.7 hPa | 0 mm | - | 50 W/m² | - |
| 1778368971 | 27.22° C | 45% | 1012.7 hPa | 0 mm | - | 52 W/m² | - |
| 1778368667 | 27.78° C | 45% | 1012.8 hPa | 0 mm | - | 53 W/m² | - |
| 1778368364 | 27.78° C | 46% | 1012.6 hPa | 0 mm | - | 53 W/m² | - |
| 1778368062 | 27.78° C | 45% | 1013.1 hPa | 0 mm | - | 55 W/m² | - |
| 1778367758 | 27.78° C | 45% | 1012.8 hPa | 0 mm | - | 58 W/m² | - |
| 1778367453 | 27.22° C | 46% | 1013 hPa | 0 mm | - | 64 W/m² | - |
| 1778367150 | 27.22° C | 47% | 1013 hPa | 0 mm | - | 318 W/m² | - |
| 1778366845 | 27.78° C | 46% | 1013 hPa | 0 mm | - | 35 W/m² | - |
| 1778366543 | 27.78° C | 45% | 1013 hPa | 0 mm | - | 135 W/m² | - |
| 1778366240 | 27.22° C | 47% | 1013.1 hPa | 0 mm | - | 252 W/m² | - |
| 1778365937 | 28.33° C | 45% | 1013.3 hPa | 0 mm | - | 88 W/m² | - |
| 1778365634 | 27.78° C | 47% | 1013.1 hPa | 0 mm | - | 160 W/m² | - |
| 1778365329 | 28.33° C | 45% | 1013.3 hPa | 0 mm | - | 550 W/m² | - |
| 1778365025 | 27.78° C | 47% | 1013.3 hPa | 0 mm | - | 593 W/m² | - |
| 1778364721 | 27.78° C | 46% | 1013.5 hPa | 0 mm | - | 240 W/m² | - |
| 1778364417 | 28.33° C | 46% | 1013.6 hPa | 0 mm | - | 362 W/m² | - |
| 1778364114 | 27.78° C | 46% | 1013.5 hPa | 0 mm | - | 502 W/m² | - |
| 1778363809 | 27.78° C | 46% | 1013.5 hPa | 0 mm | - | 538 W/m² | - |
| 1778363507 | 28.33° C | 45% | 1013.6 hPa | 0 mm | - | 613 W/m² | - |
* Rain latest hour (hover to see other rain measurements)
** Current wind speed in m/s (hover to see current wind gust speed)